Regional Weather Roundup
Issued by NWS

Home | Current Version | Previous Version | Text Only | Print | Product List | Glossary On
Versions: 1 2 3 4 5 6 7 8 9 10 11 12 13 14 15 16 17 18 19 20 21 22 23 24 25 26 27 28 29 30 31 32 33 34 35 36 37 38 39 40 41 42 43 44 45 46 47 48 49 50
000
ASUS45 KBOU 190807
RWRCO

WEATHER ROUNDUP FOR COLORADO
NATIONAL WEATHER SERVICE DENVER/BOULDER CO
200 AM MDT SAT AUG 19 2017

NOTE: "FAIR" INDICATES FEW OR NO CLOUDS BELOW 12000 FEET WITH NO
SIGNIFICANT WEATHER AND/OR OBSTRUCTIONS TO VISIBILITY.

COZ001>005-013-030-031-190900-
...NORTHWEST COLORADO...

CITY           SKY/WX    TMP DP  RH WIND       PRES   REMARKS
CRAIG          FAIR      48  36  63 CALM      30.22S
HAYDEN         FAIR      57  35  43 E7        30.25S
MEEKER         FAIR      57  35  43 E7        30.24S
RABBIT EARS PA FAIR      52  28  40 W8        30.53S
STEAMBOAT SPGS FAIR      51  36  56 CALM      30.27R
WALDEN         FAIR      43  32  65 E3        30.36S
$$

COZ006>008-011-190900-
...WEST CENTRAL VALLEYS...

CITY           SKY/WX    TMP DP  RH WIND       PRES   REMARKS
GRAND JUNCTION FAIR      68  34  28 E15       30.09S
MONTROSE       FAIR      64  38  38 SE9       30.21S
EAGLE          FAIR      53  32  44 CALM      30.29S
RIFLE          FAIR      61  33  35 CALM      30.18S
DELTA          FAIR      63  33  32 NE5       30.16S
NUCLA          FAIR      63  32  31 E6        30.24R
$$

COZ017>023-064>068-190900-
...SOUTHWEST COLORADO...

CITY           SKY/WX    TMP DP  RH WIND       PRES   REMARKS
DURANGO        FAIR      58  37  45 N5        30.25F
CORTEZ         FAIR      53  38  56 E6        30.21S
PAGOSA SPRINGS FAIR      49  33  52 CALM      30.34F
TELLURIDE      FAIR      53  34  48 SE6       30.47F
WOLF CREEK PAS FAIR      50  30  46 SW5       30.70F
$$

COZ009-010-012-014-032>034-037-058>063-190900-
...CENTRAL COLORADO...

CITY           SKY/WX    TMP DP  RH WIND       PRES   REMARKS
ASPEN          FAIR      52  35  52 S8        30.34F
BUENA VISTA    FAIR      54  35  48 NW6       30.38S
COPPER MTN     FAIR      54  21  28 W13       30.65F
BERTHOUD PASS  FAIR      43  37  81 W22       30.66F
COTTONWOOD PAS FAIR      61  28  29 W6        30.50F
GUNNISON       FAIR      47  36  65 CALM      30.38S
KREMMLING      FAIR      50  41  71 CALM      30.33F
LEADVILLE      FAIR      47  31  53 E6        30.49F
MONARCH PASS   MOCLDY    50  28  43 W13       30.76F
SALIDA         MOCLDY    56  42  59 W3        30.42S
SUNLIGHT       FAIR      54  23  30 W6        30.59F
WILKERSON PASS FAIR      48  32  53 SW7       30.62F
$$

COZ069>075-190900-
...SAN LUIS VALLEY/SANGRE DE CRISTO MOUNTAINS...

CITY           SKY/WX    TMP DP  RH WIND       PRES   REMARKS
ALAMOSA        FAIR      53  39  59 SE6       30.33S
DEL NORTE      FAIR      57  36  45 W10G17    30.36S
LA VETA PASS   NOT AVBL
SAGUACHE       FAIR      59  36  41 NW14      30.35S
$$

COZ035-036-038>040-190900-
...NORTHERN COLORADO FRONT RANGE...

CITY           SKY/WX    TMP DP  RH WIND       PRES   REMARKS
DENVER INTL AP FAIR      69  48  47 S14       30.12F
DMNS CITY PARK   N/A     66  46  48 SE8       30.12F
AURORA         CLEAR     69  48  47 S17       30.14F
FRONT RANGE AP FAIR      68  52  56 S17G23    30.14F
ERIE MUNI ARPT FAIR      60  46  58 CALM      30.15F
BOULDER MUN AP FAIR      66  43  42 SW3       30.11F
CENTENNIAL     FAIR      68  47  46 SE12      30.17F
BROOMFIELD     NOT AVBL
FORT COLLINS   FAIR      60  52  74 N5        30.10F
LONGMONT       FAIR      59  48  67 NW5       30.12F
$$

COZ041-046-047-076>085-087-088-190900-
...PIKES PEAK/PALMER DIVIDE AND SOUTHERN FOOTHILLS...

CITY           SKY/WX    TMP DP  RH WIND       PRES   REMARKS
COLO. SPRINGS  FAIR      63  52  67 N3        30.24F
A. F. ACADEMY  FAIR      61  47  58 CALM      30.25F
SCHRIEVER AFB  FAIR      61  51  71 NW5       30.23F
CHEYENNE MTN   FAIR      65  47  51 S3        30.23F
ELLICOTT       NOT AVBL
FALCON         FAIR      57  50  76 W5        30.29F
FORT CARSON    FAIR      61  51  69 NW8       30.20F
LIMON          FAIR      52  51  97 CALM      30.18F
MONUMENT HILL  FAIR      55  50  82 SW8       30.28F
CANON CITY     CLEAR     64  48  55 W8        30.17F
WALSENBURG     FAIR      61  41  48 W7        30.20S
TRINIDAD       FAIR      68  51  54 W13       30.18F
$$

COZ042>045-048>051-090-091-190900-
...NORTHEAST COLORADO...

CITY           SKY/WX    TMP DP  RH WIND       PRES   REMARKS
GREELEY ARPT   FAIR      57  53  86 NE3       30.08
AKRON          FAIR      66  52  60 S14       30.11F
BURLINGTON     FAIR      63  56  78 S12       30.11F
WRAY           NOT AVBL
YUMA           FAIR      61  45  55 S10       30.08F
STERLING       FAIR      64  54  68 SW9       30.06F
HOLYOKE        FAIR      61  54  77 SW5       30.07F
FORT MORGAN    FAIR      64  50  61 SE3       30.10F
$$

COZ086-089-092>099-190900-
...SOUTHEAST COLORADO...

CITY           SKY/WX    TMP DP  RH WIND       PRES   REMARKS
PUEBLO         FAIR      63  53  70 N9        30.11S
LA JUNTA       FAIR      65  58  78 E7        30.09S
LAMAR          FAIR      62  59  90 E7        30.06F
SPRINGFIELD      N/A     62  62 100 SW5       30.11F
$$



USA.gov is the U.S. government's official web portal to all federal, state and local government web resources and services.